Location: Montbazon
(47.2835°N, 0.6999°E)
Time: 16:25:52
(UTC+00:00)

Cosmos 1802 Rocket - Pass Details

Date: 08 November 2025
Orbit: 953 x 1011 km, 82.9° (Epoch: 09 December)

Event Time Altitude Azimuth Distance (km) Brightness Sun altitude
Rises 05:03:05 0° 349° (NNW) 3,743 6.9 -18.5°
Reaches altitude 10° 05:05:39 10° 347° (NNW) 2,783 6.2 -18.1°
Maximum altitude 05:11:58 68° 266° (W) 1,063 3.9 -17.0°
Drops below altitude 10° 05:18:11 10° 185° (S) 2,726 6.4 -16.0°
Sets 05:20:40 0° 182° (S) 3,661 7.1 -15.5°
